Tracking 31027 objects as of 19-Jul-2025
HD Live streaming from Space Station
objects crossing your sky now

HINCUBE

Track HINCUBE now!
10-day predictions
HINCUBE is classified as:


NORAD ID: 39445
Int'l Code: 2013-066AF
Perigee: 542.0 km
Apogee: 594.3 km
Inclination: 97.8 °
Period: 95.9 minutes
Semi major axis: 6939 km
RCS: Unknown
Launch date: November 21, 2013
Source: Norway (NOR)
Launch site: Orenburg, Russia (OREN)

Uplink (MHz):
Downlink (MHz): 437.305
Beacon (MHz):
Mode:
Call sign:
Status: Inactive

Your satellite tracking list
IRIDIUM 135
Track 1 satellite(s)




NASA's NSSDC Master Catalog

Two Line Element Set (TLE):
1 39445U 13066AF  25199.83773582  .00005341  00000-0  40718-3 0  9996
2 39445  97.7530 160.8694 0037729 260.4111  99.2849 15.01909008629387
Source of the keplerian elements: AFSPC